Location: Bergnerzell
(49.1816°N, 10.2565°E)
Time: 12:47:50
(UTC+00:00)

IDEFIX/ARIANE 42P - Pass Details

Date: 13 August 2024
Orbit: 782 x 799 km, 98.5° (Epoch: 15 September)

Event Time Altitude Azimuth Distance (km) Brightness Sun altitude
Rises 02:51:22 0° 3° (N) 3,285 6.4 -11.6°
Reaches altitude 10° 02:54:24 10° 344° (NNW) 2,353 5.3 -11.2°
Maximum altitude 02:57:42 17° 305° (NW) 1,886 4.4 -10.8°
Drops below altitude 10° 03:01:00 10° 265° (W) 2,348 4.5 -10.3°
Enters shadow 03:01:14 - 263° (W) 2,409 4.5 -10.3°
